Time,TemperatureF,DewpointF,PressureIn,WindDirection,WindDirectionDegrees,WindSpeedMPH,WindSpeedGustMPH,Humidity,HourlyPrecipIn,Conditions,Clouds,dailyrainin,SoftwareType,DateUTC
2013-02-15 00:02:00,40.0,33.0,29.99,WSW,245,14.0,-999.0,76,-99.99,,,-99.99,,2013-02-15 05:02:00,
2013-02-15 00:12:00,40.0,33.0,29.99,WSW,245,14.0,-999.0,76,-99.99,,,-99.99,,2013-02-15 05:12:00,
2013-02-15 00:22:00,40.0,34.0,29.99,WSW,240,15.0,-999.0,78,-99.99,,,-99.99,,2013-02-15 05:22:00,
2013-02-15 00:32:00,40.0,34.0,29.99,WSW,242,15.0,-999.0,78,-99.99,,,-99.99,,2013-02-15 05:32:00,
2013-02-15 00:42:00,40.0,34.0,29.99,WSW,242,15.0,-999.0,78,-99.99,,,-99.99,,2013-02-15 05:42:00,
2013-02-15 00:52:00,40.0,34.0,29.99,SW,236,15.0,-999.0,78,-99.99,,,-99.99,,2013-02-15 05:52:00,
2013-02-15 01:02:00,40.0,34.0,30.00,WSW,238,15.0,-999.0,79,-99.99,,,-99.99,,2013-02-15 06:02:00,
2013-02-15 01:11:00,40.0,34.0,29.99,SW,236,15.0,-999.0,79,-99.99,,,-99.99,,2013-02-15 06:11:00,
2013-02-15 01:22:00,40.0,34.0,29.99,SW,236,15.0,-999.0,79,-99.99,,,-99.99,,2013-02-15 06:22:00,
2013-02-15 01:32:00,40.0,34.0,29.99,WSW,240,15.0,-999.0,79,-99.99,,,-99.99,,2013-02-15 06:32:00,
2013-02-15 01:42:00,40.0,34.0,29.99,WSW,240,15.0,-999.0,79,-99.99,,,-99.99,,2013-02-15 06:42:00,
2013-02-15 01:52:00,40.0,35.0,29.99,WSW,240,13.0,-999.0,83,-99.99,,,-99.99,,2013-02-15 06:52:00,
2013-02-15 02:01:00,40.0,34.0,29.98,WSW,248,14.0,-999.0,78,-99.99,,,-99.99,,2013-02-15 07:01:00,
2013-02-15 02:11:00,40.0,34.0,29.98,WSW,248,14.0,-999.0,78,-99.99,,,-99.99,,2013-02-15 07:11:00,
2013-02-15 02:21:00,40.0,33.0,29.98,WSW,246,13.0,-999.0,77,-99.99,,,-99.99,,2013-02-15 07:21:00,
2013-02-15 02:31:00,40.0,33.0,29.98,WSW,253,13.0,-999.0,76,-99.99,,,-99.99,,2013-02-15 07:31:00,
2013-02-15 02:42:00,40.0,33.0,29.98,WSW,253,13.0,-999.0,76,-99.99,,,-99.99,,2013-02-15 07:42:00,
2013-02-15 02:52:00,40.0,33.0,29.98,WSW,254,14.0,-999.0,76,-99.99,,,-99.99,,2013-02-15 07:52:00,
2013-02-15 03:01:00,41.0,33.0,29.98,West,261,14.0,-999.0,74,-99.99,,,-99.99,,2013-02-15 08:01:00,
2013-02-15 03:11:00,41.0,33.0,29.98,West,261,14.0,-999.0,74,-99.99,,,-99.99,,2013-02-15 08:11:00,
2013-02-15 03:21:00,41.0,33.0,29.97,West,266,14.0,-999.0,74,-99.99,,,-99.99,,2013-02-15 08:21:00,
2013-02-15 03:32:00,41.0,34.0,29.97,West,259,14.0,-999.0,75,-99.99,,,-99.99,,2013-02-15 08:32:00,
2013-02-15 03:42:00,41.0,34.0,29.97,West,259,14.0,-999.0,75,-99.99,,,-99.99,,2013-02-15 08:42:00,
2013-02-15 03:53:00,40.0,33.0,29.97,WSW,252,13.0,-999.0,76,-99.99,,,-99.99,,2013-02-15 08:53:00,
2013-02-15 04:02:00,40.0,33.0,29.96,West,259,13.0,-999.0,77,-99.99,,,-99.99,,2013-02-15 09:02:00,
2013-02-15 04:12:00,40.0,33.0,29.96,West,259,13.0,-999.0,77,-99.99,,,-99.99,,2013-02-15 09:12:00,
2013-02-15 04:21:00,40.0,33.0,29.96,WSW,256,12.0,-999.0,77,-99.99,,,-99.99,,2013-02-15 09:21:00,
2013-02-15 04:32:00,40.0,33.0,29.96,WSW,250,13.0,-999.0,77,-99.99,,,-99.99,,2013-02-15 09:32:00,
2013-02-15 04:42:00,40.0,33.0,29.96,WSW,250,13.0,-999.0,77,-99.99,,,-99.99,,2013-02-15 09:42:00,
2013-02-15 04:52:00,39.0,33.0,29.96,WSW,248,13.0,-999.0,78,-99.99,,,-99.99,,2013-02-15 09:52:00,
2013-02-15 05:01:00,40.0,33.0,29.96,WSW,252,13.0,-999.0,77,-99.99,,,-99.99,,2013-02-15 10:01:00,
2013-02-15 05:11:00,40.0,33.0,29.96,WSW,252,13.0,-999.0,77,-99.99,,,-99.99,,2013-02-15 10:11:00,
2013-02-15 05:21:00,39.0,32.0,29.96,WSW,248,13.0,-999.0,77,-99.99,,,-99.99,,2013-02-15 10:21:00,
2013-02-15 05:31:00,39.0,33.0,29.96,WSW,246,13.0,-999.0,78,-99.99,,,-99.99,,2013-02-15 10:31:00,
2013-02-15 05:42:00,39.0,33.0,29.96,WSW,246,13.0,-999.0,78,-99.99,,,-99.99,,2013-02-15 10:42:00,
2013-02-15 05:52:00,39.0,33.0,29.96,WSW,248,13.0,-999.0,78,-99.99,,,-99.99,,2013-02-15 10:52:00,
2013-02-15 06:01:00,39.0,33.0,29.98,WSW,252,13.0,-999.0,78,-99.99,,,-99.99,,2013-02-15 11:01:00,
2013-02-15 06:11:00,39.0,33.0,29.98,WSW,252,13.0,-999.0,78,-99.99,,,-99.99,,2013-02-15 11:11:00,
2013-02-15 06:23:00,39.0,33.0,29.98,WSW,244,13.0,-999.0,79,-99.99,,,-99.99,,2013-02-15 11:23:00,
2013-02-15 06:32:00,39.0,33.0,29.99,WSW,245,14.0,-999.0,79,-99.99,,,-99.99,,2013-02-15 11:32:00,
2013-02-15 06:42:00,39.0,33.0,29.99,WSW,245,14.0,-999.0,79,-99.99,,,-99.99,,2013-02-15 11:42:00,
2013-02-15 06:52:00,39.0,33.0,29.99,WSW,245,15.0,-999.0,79,-99.99,,,-99.99,,2013-02-15 11:52:00,
2013-02-15 07:02:00,38.0,32.0,29.99,WSW,242,15.0,-999.0,79,-99.99,,,-99.99,,2013-02-15 12:02:00,
2013-02-15 07:11:00,38.0,32.0,29.99,WSW,242,15.0,-999.0,79,-99.99,,,-99.99,,2013-02-15 12:11:00,
2013-02-15 07:21:00,38.0,32.0,30.00,WSW,246,16.0,-999.0,80,-99.99,,,-99.99,,2013-02-15 12:21:00,
2013-02-15 07:32:00,38.0,33.0,30.00,WSW,246,17.0,-999.0,81,-99.99,,,-99.99,,2013-02-15 12:32:00,
2013-02-15 07:42:00,38.0,33.0,30.00,WSW,246,17.0,-999.0,81,-99.99,,,-99.99,,2013-02-15 12:42:00,
2013-02-15 07:52:00,38.0,33.0,30.01,WSW,241,17.0,-999.0,81,-99.99,,,-99.99,,2013-02-15 12:52:00,
2013-02-15 08:02:00,38.0,32.0,30.01,WSW,249,19.0,-999.0,80,-99.99,,,-99.99,,2013-02-15 13:02:00,
2013-02-15 08:11:00,38.0,32.0,30.02,WSW,253,17.0,-999.0,80,-99.99,,,-99.99,,2013-02-15 13:11:00,
2013-02-15 08:22:00,38.0,32.0,30.02,WSW,253,17.0,-999.0,80,-99.99,,,-99.99,,2013-02-15 13:22:00,
2013-02-15 08:32:00,38.0,32.0,30.02,WSW,252,16.0,-999.0,80,-99.99,,,-99.99,,2013-02-15 13:32:00,
2013-02-15 08:42:00,38.0,32.0,30.02,WSW,252,16.0,-999.0,80,-99.99,,,-99.99,,2013-02-15 13:42:00,
2013-02-15 08:52:00,38.0,33.0,30.02,WSW,240,16.0,-999.0,81,-99.99,,,-99.99,,2013-02-15 13:52:00,
2013-02-15 09:01:00,38.0,33.0,30.02,WSW,242,17.0,-999.0,81,-99.99,,,-99.99,,2013-02-15 14:01:00,
2013-02-15 09:12:00,38.0,33.0,30.02,WSW,242,17.0,-999.0,81,-99.99,,,-99.99,,2013-02-15 14:12:00,
2013-02-15 09:21:00,38.0,33.0,30.01,SW,234,17.0,-999.0,81,-99.99,,,-99.99,,2013-02-15 14:21:00,
2013-02-15 09:32:00,38.0,33.0,30.01,SW,231,15.0,-999.0,82,-99.99,,,-99.99,,2013-02-15 14:32:00,
2013-02-15 09:42:00,38.0,33.0,30.01,SW,231,15.0,-999.0,82,-99.99,,,-99.99,,2013-02-15 14:42:00,
2013-02-15 09:52:00,38.0,33.0,30.01,SW,227,15.0,-999.0,82,-99.99,,,-99.99,,2013-02-15 14:52:00,
2013-02-15 10:01:00,39.0,34.0,30.00,SW,223,14.0,-999.0,81,-99.99,,,-99.99,,2013-02-15 15:01:00,
2013-02-15 10:11:00,39.0,34.0,30.00,SW,223,14.0,-999.0,81,-99.99,,,-99.99,,2013-02-15 15:11:00,
2013-02-15 10:21:00,40.0,35.0,30.00,WSW,240,14.0,-999.0,81,-99.99,,,-99.99,,2013-02-15 15:21:00,
2013-02-15 10:32:00,40.0,34.0,29.99,WSW,237,14.0,-999.0,80,-99.99,,,-99.99,,2013-02-15 15:32:00,
2013-02-15 10:42:00,41.0,35.0,29.99,SW,235,14.0,-999.0,79,-99.99,,,-99.99,,2013-02-15 15:42:00,
2013-02-15 10:51:00,41.0,35.0,29.99,SW,235,14.0,-999.0,79,-99.99,,,-99.99,,2013-02-15 15:51:00,
2013-02-15 11:02:00,41.0,35.0,29.99,SW,235,16.0,-999.0,79,-99.99,,,-99.99,,2013-02-15 16:02:00,
2013-02-15 11:11:00,41.0,35.0,29.99,SW,235,16.0,-999.0,79,-99.99,,,-99.99,,2013-02-15 16:11:00,
2013-02-15 11:22:00,41.0,35.0,30.00,SW,224,15.0,-999.0,79,-99.99,,,-99.99,,2013-02-15 16:22:00,
2013-02-15 11:32:00,43.0,36.0,29.99,SW,235,10.0,-999.0,76,-99.99,,,-99.99,,2013-02-15 16:32:00,
2013-02-15 11:42:00,43.0,36.0,29.99,SW,235,10.0,-999.0,76,-99.99,,,-99.99,,2013-02-15 16:42:00,
2013-02-15 11:52:00,43.0,36.0,29.99,WSW,238,13.0,-999.0,75,-99.99,,,-99.99,,2013-02-15 16:52:00,
2013-02-15 12:01:00,45.0,37.0,29.99,West,269,9.0,-999.0,73,-99.99,,,-99.99,,2013-02-15 17:01:00,
2013-02-15 12:11:00,45.0,38.0,29.99,West,275,9.0,-999.0,75,-99.99,,,-99.99,,2013-02-15 17:11:00,
2013-02-15 12:21:00,45.0,38.0,29.99,West,275,9.0,-999.0,75,-99.99,,,-99.99,,2013-02-15 17:21:00,
2013-02-15 12:32:00,45.0,37.0,29.98,WSW,252,11.0,-999.0,73,-99.99,,,-99.99,,2013-02-15 17:32:00,
2013-02-15 12:42:00,45.0,37.0,29.98,WSW,252,11.0,-999.0,73,-99.99,,,-99.99,,2013-02-15 17:42:00,
2013-02-15 12:52:00,44.0,36.0,29.98,WSW,244,13.0,-999.0,73,-99.99,,,-99.99,,2013-02-15 17:52:00,
2013-02-15 13:01:00,45.0,37.0,29.97,SSW,204,13.0,-999.0,72,-99.99,,,-99.99,,2013-02-15 18:01:00,
2013-02-15 13:11:00,45.0,37.0,29.97,SSW,204,13.0,-999.0,72,-99.99,,,-99.99,,2013-02-15 18:11:00,
2013-02-15 13:21:00,45.0,36.0,29.97,West,264,12.0,-999.0,70,-99.99,,,-99.99,,2013-02-15 18:21:00,
2013-02-15 13:32:00,46.0,35.0,29.96,West,265,14.0,-999.0,66,-99.99,,,-99.99,,2013-02-15 18:32:00,
2013-02-15 13:42:00,46.0,35.0,29.96,West,265,14.0,-999.0,66,-99.99,,,-99.99,,2013-02-15 18:42:00,
2013-02-15 13:53:00,45.0,35.0,29.95,West,259,15.0,-999.0,69,-99.99,,,-99.99,,2013-02-15 18:53:00,
2013-02-15 14:01:00,44.0,36.0,29.95,NW,318,13.0,-999.0,73,-99.99,,,-99.99,,2013-02-15 19:01:00,
2013-02-15 14:11:00,44.0,36.0,29.95,NW,318,13.0,-999.0,73,-99.99,,,-99.99,,2013-02-15 19:11:00,
2013-02-15 14:22:00,45.0,38.0,29.95,WNW,291,11.0,-999.0,75,-99.99,,,-99.99,,2013-02-15 19:22:00,
2013-02-15 14:32:00,44.0,39.0,29.94,North,355,6.0,-999.0,81,-99.99,,,-99.99,,2013-02-15 19:32:00,
2013-02-15 14:42:00,44.0,39.0,29.94,North,355,6.0,-999.0,81,-99.99,,,-99.99,,2013-02-15 19:42:00,
2013-02-15 14:52:00,42.0,38.0,29.94,NNW,331,7.0,-999.0,85,-99.99,,,-99.99,,2013-02-15 19:52:00,
2013-02-15 15:01:00,41.0,37.0,29.94,North,355,9.0,-999.0,87,-99.99,,,-99.99,,2013-02-15 20:01:00,
2013-02-15 15:11:00,41.0,37.0,29.94,North,355,9.0,-999.0,87,-99.99,,,-99.99,,2013-02-15 20:11:00,
2013-02-15 15:21:00,40.0,37.0,29.94,NNW,340,6.0,-999.0,89,-99.99,,,-99.99,,2013-02-15 20:21:00,
2013-02-15 15:32:00,39.0,37.0,29.94,NW,325,8.0,-999.0,91,-99.99,,,-99.99,,2013-02-15 20:32:00,
2013-02-15 15:42:00,39.0,37.0,29.94,NW,325,8.0,-999.0,91,-99.99,,,-99.99,,2013-02-15 20:42:00,
2013-02-15 15:52:00,39.0,37.0,29.94,NNW,340,7.0,-999.0,93,-99.99,,,-99.99,,2013-02-15 20:52:00,
2013-02-15 16:02:00,39.0,37.0,29.94,NNW,329,7.0,-999.0,91,-99.99,,,-99.99,,2013-02-15 21:02:00,
2013-02-15 16:11:00,39.0,37.0,29.94,NNW,329,7.0,-999.0,91,-99.99,,,-99.99,,2013-02-15 21:11:00,
2013-02-15 16:21:00,38.0,36.0,29.94,North,5,9.0,-999.0,92,-99.99,,,-99.99,,2013-02-15 21:21:00,
2013-02-15 16:32:00,37.0,35.0,29.95,NNW,346,10.0,-999.0,94,-99.99,,,-99.99,,2013-02-15 21:32:00,
2013-02-15 16:42:00,37.0,35.0,29.95,NNW,346,10.0,-999.0,94,-99.99,,,-99.99,,2013-02-15 21:42:00,
2013-02-15 16:52:00,36.0,34.0,29.95,North,355,11.0,-999.0,93,-99.99,,,-99.99,,2013-02-15 21:52:00,
2013-02-15 17:02:00,36.0,34.0,29.95,North,360,9.0,-999.0,93,-99.99,,,-99.99,,2013-02-15 22:02:00,
2013-02-15 17:11:00,36.0,35.0,29.96,North,355,8.0,-999.0,95,-99.99,,,-99.99,,2013-02-15 22:11:00,
2013-02-15 17:22:00,36.0,35.0,29.96,North,355,8.0,-999.0,95,-99.99,,,-99.99,,2013-02-15 22:22:00,
2013-02-15 17:32:00,35.0,34.0,29.97,NNW,334,7.0,-999.0,98,-99.99,,,-99.99,,2013-02-15 22:32:00,
2013-02-15 17:42:00,35.0,34.0,29.97,NNW,334,7.0,-999.0,98,-99.99,,,-99.99,,2013-02-15 22:42:00,
2013-02-15 17:52:00,34.0,34.0,29.97,NNE,19,8.0,-999.0,100,-99.99,,,-99.99,,2013-02-15 22:52:00,
2013-02-15 18:02:00,33.0,33.0,29.98,NNE,26,8.0,-999.0,100,-99.99,,,-99.99,,2013-02-15 23:02:00,
2013-02-15 18:11:00,33.0,33.0,29.98,NNE,26,8.0,-999.0,100,-99.99,,,-99.99,,2013-02-15 23:11:00,
2013-02-15 18:21:00,33.0,33.0,29.98,North,11,8.0,-999.0,100,-99.99,,,-99.99,,2013-02-15 23:21:00,
2013-02-15 18:32:00,32.0,32.0,29.98,North,355,10.0,-999.0,100,-99.99,,,-99.99,,2013-02-15 23:32:00,
2013-02-15 18:42:00,32.0,32.0,29.98,North,355,10.0,-999.0,100,-99.99,,,-99.99,,2013-02-15 23:42:00,
2013-02-15 18:52:00,31.0,31.0,29.99,North,5,8.0,-999.0,100,-99.99,,,-99.99,,2013-02-15 23:52:00,
2013-02-15 19:02:00,31.0,31.0,29.99,North,360,7.0,-999.0,100,-99.99,,,-99.99,,2013-02-16 00:02:00,
2013-02-15 19:11:00,31.0,31.0,29.99,North,360,7.0,-999.0,100,-99.99,,,-99.99,,2013-02-16 00:11:00,
2013-02-15 19:21:00,31.0,31.0,30.00,North,360,5.0,-999.0,100,-99.99,,,-99.99,,2013-02-16 00:21:00,
2013-02-15 19:32:00,31.0,31.0,30.00,North,360,4.0,-999.0,100,-99.99,,,-99.99,,2013-02-16 00:32:00,
2013-02-15 19:41:00,31.0,31.0,30.00,North,360,4.0,-999.0,100,-99.99,,,-99.99,,2013-02-16 00:41:00,
2013-02-15 19:52:00,31.0,31.0,30.01,North,360,4.0,-999.0,100,-99.99,,,-99.99,,2013-02-16 00:52:00,
2013-02-15 20:02:00,31.0,31.0,30.01,North,360,2.0,-999.0,100,-99.99,,,-99.99,,2013-02-16 01:02:00,
2013-02-15 20:11:00,31.0,31.0,30.01,North,360,2.0,-999.0,100,-99.99,,,-99.99,,2013-02-16 01:11:00,
2013-02-15 20:21:00,31.0,31.0,30.01,North,360,3.0,-999.0,100,-99.99,,,-99.99,,2013-02-16 01:21:00,
2013-02-15 20:32:00,31.0,31.0,30.01,North,360,0.0,-999.0,100,-99.99,,,-99.99,,2013-02-16 01:32:00,
2013-02-15 20:42:00,31.0,31.0,30.01,North,360,0.0,-999.0,100,-99.99,,,-99.99,,2013-02-16 01:42:00,
2013-02-15 20:52:00,30.0,30.0,30.01,North,360,5.0,-999.0,100,-99.99,,,-99.99,,2013-02-16 01:52:00,
2013-02-15 21:01:00,28.0,28.0,30.01,North,360,11.0,-999.0,100,-99.99,,,-99.99,,2013-02-16 02:01:00,
2013-02-15 21:11:00,28.0,28.0,30.01,North,360,11.0,-999.0,100,-99.99,,,-99.99,,2013-02-16 02:11:00,
2013-02-15 21:21:00,28.0,28.0,30.01,North,360,10.0,-999.0,100,-99.99,,,-99.99,,2013-02-16 02:21:00,
2013-02-15 21:32:00,28.0,28.0,30.01,North,360,10.0,-999.0,100,-99.99,,,-99.99,,2013-02-16 02:32:00,
2013-02-15 21:42:00,28.0,28.0,30.01,North,360,10.0,-999.0,100,-99.99,,,-99.99,,2013-02-16 02:42:00,
2013-02-15 21:52:00,28.0,28.0,30.01,North,360,9.0,-999.0,100,-99.99,,,-99.99,,2013-02-16 02:52:00,
2013-02-15 22:02:00,28.0,28.0,30.02,North,360,8.0,-999.0,100,-99.99,,,-99.99,,2013-02-16 03:02:00,
2013-02-15 22:11:00,28.0,28.0,30.02,North,360,8.0,-999.0,100,-99.99,,,-99.99,,2013-02-16 03:11:00,
2013-02-15 22:21:00,28.0,28.0,30.02,North,360,6.0,-999.0,100,-99.99,,,-99.99,,2013-02-16 03:21:00,
2013-02-15 22:32:00,28.0,28.0,30.01,North,360,6.0,-999.0,100,-99.99,,,-99.99,,2013-02-16 03:32:00,
2013-02-15 22:42:00,28.0,28.0,30.01,North,360,6.0,-999.0,100,-99.99,,,-99.99,,2013-02-16 03:42:00,
2013-02-15 22:52:00,28.0,28.0,30.01,North,360,6.0,-999.0,100,-99.99,,,-99.99,,2013-02-16 03:52:00,
2013-02-15 23:01:00,28.0,28.0,30.01,North,360,5.0,-999.0,100,-99.99,,,-99.99,,2013-02-16 04:01:00,
2013-02-15 23:11:00,28.0,28.0,30.01,North,360,6.0,-999.0,100,-99.99,,,-99.99,,2013-02-16 04:11:00,
2013-02-15 23:21:00,28.0,28.0,30.01,North,360,6.0,-999.0,100,-99.99,,,-99.99,,2013-02-16 04:21:00,
2013-02-15 23:32:00,28.0,28.0,30.01,North,360,5.0,-999.0,100,-99.99,,,-99.99,,2013-02-16 04:32:00,
2013-02-15 23:42:00,28.0,28.0,30.01,North,360,5.0,-999.0,100,-99.99,,,-99.99,,2013-02-16 04:42:00,
2013-02-15 23:51:00,28.0,28.0,29.97,North,360,3.0,-999.0,100,-99.99,,,-99.99,,2013-02-16 04:51:00,